Kezdőlap
METAR-TAF:

METAR-TAF

Repülőterek :

Tadoule Lake, Manitoba, Kanada

földrajzi szélesség: 58-42-22N, földrajzi hosszúság: 98-30-44W, magasság: 281 m

Jelenlegi meteorológiai megfigyelések

A jelentés 35 perccel ezelõtt készült, 02:00 UTC
Déli szél 4 kt
Hőmérséklet 21°C
Páratartalom 43%
Légköri nyomás 1021 hPa
Látótávolság: 14.5 km
Derült ég

METAR: CYBQ 230200Z AUTO 19004KT 9SM CLR 21/08 A3016 RMK SLP223 DENSITY ALT 1600FT

Idő: 21:35 (02:35 UTC)


TAF: hiányzik

Meteorológiai megfigyelések és előrejelzések több, mint 4000 repülőtéren (METAR és TAF jelentéseket).

A térképen piros és sárga pontok jelzik az elérhető meteorológiai állomásokat.

Mozgassa az egeret a pont fölött, hogy megjelenjen az állomás neve.

Azután kattintson az időjárási megfigyelések és előrejelzések megtekintéséhez.

A térkép megváltoztatása: kattintson a fekete keresztel jelölt zöld gombra ráközelítéshez, a vonallal jelölt zöld gombra távolításhoz, vagy a zöld nyilakra a szomszédos térképek eléréséhez.


METAR-TAF: